Welcome to mirrors.dotsrc.org

All our mirrors of open source software are available via http, https, ftp and an onion service. More information about our mirrors including statistics and contact information is available on our mirror info pages.

For information about dotsrc.org and our other services please go to our website.

Index of /pub/mirrors/kali/pool/main/k/

File Name  ↓ File Size  ↓ Date  ↓ 
Parent directory/--
kgb/-2017-04-19 14:59:50
kerneltop/-2017-04-19 14:59:50
kbd-chooser/-2018-10-16 15:40:39
kobodeluxe/-2018-10-16 15:40:39
kickseed/-2018-10-16 15:40:39
knocker/-2019-08-21 09:28:56
krank/-2019-11-21 21:13:29
keras-preprocessing/-2020-05-05 08:41:45
keras-applications/-2020-05-05 08:41:45
krop/-2020-07-21 14:49:08
kali-root-login/-2020-11-03 09:56:13
keyringer/-2020-11-03 09:56:17
kopano-webapp-plugin-files/-2020-11-03 09:56:21
kytos-sphinx-theme/-2020-11-03 09:56:22
kdeplasma-applets-xrdesktop/-2020-11-11 12:44:20
kazocsaba-imageviewer/-2021-02-02 00:00:31
kthresher/-2021-02-10 06:02:47
kali-hw-gemini/-2021-02-16 12:20:51
kcc/-2021-02-16 12:20:53
kdgcommons-java/-2021-02-16 12:20:57
knopflerfish-osgi/-2021-02-16 12:21:01
kwalify/-2021-02-16 12:21:08
kxml2/-2021-02-16 12:21:09
klustakwik/-2021-08-31 15:20:14
knowl.js/-2021-11-25 13:07:01
kstart/-2021-11-25 13:07:03
keymapper/-2022-02-07 17:13:48
konwert/-2022-02-07 17:13:55
kunststoff/-2022-02-07 17:13:56
king-probe/-2022-05-04 07:18:00
kubernetes/-2022-05-04 07:18:05
kalipi-tft-config/-2022-07-20 01:04:03
keybinder/-2022-07-20 07:46:07
keynav/-2022-07-20 07:46:07
kickoff/-2022-07-20 07:46:08
krb5-sync/-2022-07-20 07:46:19
kwstyle/-2022-07-20 07:46:22
kylin-nm/-2022-07-20 07:46:22
kephra/-2022-08-02 18:59:56
kerberos-configs/-2022-08-05 00:04:56
kali-hw-pinephonepro/-2022-11-22 05:01:12
kali-hw-pinephone/-2022-11-22 05:02:24
kali-grant-root/-2022-11-23 01:54:58
kanif/-2022-11-23 01:54:59
kanjidic/-2022-11-23 01:54:59
kelbt/-2022-11-23 01:55:01
key-chord-el/-2022-11-23 01:55:01
khronos-api/-2022-11-23 01:55:02
kluppe/-2022-11-23 01:55:05
kmerresistance/-2022-11-23 01:55:06
kpcli/-2022-11-23 01:55:07
kup/-2022-11-23 01:55:08
ksmtuned/-2022-11-23 01:55:08
kytos-utils/-2022-11-23 01:55:09
kraken/-2022-12-03 06:05:01
kotlin-mode/-2023-02-10 12:01:21
keepass2-plugin-keepasshttp/-2023-02-10 12:01:36
keepass2/-2023-02-10 12:01:36
kworkflow/-2023-02-13 06:06:22
kali-debtags/-2023-03-07 13:32:47
karabo-bridge/-2023-03-07 13:32:49
kazam/-2023-03-07 13:32:49
kanjidraw/-2023-03-07 13:32:49
kdc2tiff/-2023-03-07 13:32:50
kerberoast/-2023-03-07 13:32:52
keepassx/-2023-03-07 13:32:52
kinput2/-2023-03-07 13:32:55
kismet-docs/-2023-03-07 13:32:56
kitchen/-2023-03-07 13:32:56
kmer/-2023-03-07 13:32:58
koules/-2023-03-07 13:32:59
kajongg/-2023-05-23 02:09:09
kali-win-kex/-2023-05-23 02:09:10
kde-dev-scripts/-2023-05-23 02:09:11
kdeedu-data/-2023-05-23 02:09:11
kernel-handbook/-2023-05-23 02:09:20
kim-api/-2023-05-23 02:09:21
koadic/-2023-05-23 02:09:22
kaboxer/-2023-05-26 00:08:08
knitpy/-2023-06-13 06:09:11
kalipi-config/-2023-06-16 07:59:31
kakoune/-2023-08-16 16:06:01
kali-tweaks/-2023-08-16 16:06:02
kanyremote/-2023-08-16 16:06:03
kernsmooth/-2023-08-16 16:06:05
knack/-2023-08-16 16:06:09
kiwi-boxed-plugin/-2023-11-17 06:19:56
kafkacat/-2023-11-30 02:12:58
kali-autopilot/-2023-11-30 02:12:58
kali-undercover/-2023-11-30 02:12:59
kazoo/-2023-11-30 02:13:00
kdevelop-python/-2023-11-30 02:13:01
kernel-wedge/-2023-11-30 02:13:01
kdevelop-php/-2023-11-30 02:13:01
king/-2023-11-30 02:13:04
klystrack/-2023-11-30 02:13:05
klick/-2023-11-30 02:13:05
kmfl-keyboards-mywin/-2023-11-30 02:13:05
konfont/-2023-11-30 02:13:07
klepto/-2024-02-05 06:27:02
kodi-pvr-hdhomerun/-2024-02-07 18:00:43
kodi-audiodecoder-sidplay/-2024-02-07 18:02:02
kodi-audiodecoder-fluidsynth/-2024-02-07 18:02:02
kodi-audioencoder-wav/-2024-02-07 18:02:03
kodi-audioencoder-vorbis/-2024-02-07 18:02:03
kodi-audioencoder-lame/-2024-02-07 18:02:03
kodi-imagedecoder-heif/-2024-02-07 18:02:05
kodi-peripheral-xarcade/-2024-02-07 18:02:06
kodi-inputstream-rtmp/-2024-02-07 18:02:06
kodi-pvr-dvblink/-2024-02-07 18:02:06
kodi-pvr-argustv/-2024-02-07 18:02:06
kodi-pvr-mediaportal-tvserver/-2024-02-07 18:02:07
kodi-pvr-dvbviewer/-2024-02-07 18:02:07
kodi-pvr-octonet/-2024-02-07 18:02:07
kodi-pvr-pctv/-2024-02-07 18:02:07
kodi-pvr-filmon/-2024-02-07 18:02:07
kodi-screensaver-pyro/-2024-02-07 18:02:08
kodi-pvr-stalker/-2024-02-07 18:02:08
kodi-screensaver-biogenesis/-2024-02-07 18:02:08
kodi-pvr-wmc/-2024-02-07 18:02:08
kodi-visualization-waveform/-2024-02-07 18:02:09
kodi-visualization-pictureit/-2024-02-07 18:02:09
kodi-visualization-shadertoy/-2024-02-07 18:02:09
kodi-visualization-fishbmc/-2024-02-07 18:02:09
kodi-peripheral-joystick/-2024-02-11 06:44:35
kodi-pvr-iptvsimple/-2024-02-11 06:44:36
kodi-pvr-nextpvr/-2024-02-11 06:44:36
kodi-pvr-teleboy/-2024-02-11 06:44:37
kodi-pvr-sledovanitv-cz/-2024-02-11 06:44:37
kodi-pvr-vbox/-2024-02-11 06:44:37
kodi-pvr-waipu/-2024-02-11 06:44:38
kodi-pvr-vdr-vnsi/-2024-02-11 06:44:38
kodi-pvr-vuplus/-2024-02-11 06:44:38
kodi-screensaver-asteroids/-2024-02-11 06:44:39
kodi-pvr-zattoo/-2024-02-11 06:44:39
kodi-screensaver-greynetic/-2024-02-11 06:44:39
kodi-screensaver-pingpong/-2024-02-11 06:44:40
kodi-screensaver-shadertoy/-2024-02-11 06:44:40
kodi-vfs-sftp/-2024-02-11 06:44:41
kodi-pvr-njoy/-2024-02-13 00:08:33
kodi-visualization-spectrum/-2024-02-13 00:08:33
kitchensink-clojure/-2024-02-18 18:00:32
kakasi/-2024-02-21 01:38:31
kali-archive-keyring/-2024-02-21 01:38:31
kali-community-wallpapers/-2024-02-21 01:38:31
kali-screensaver/-2024-02-21 01:38:31
kali-menu/-2024-02-21 01:38:31
kali-wallpapers/-2024-02-21 01:38:32
kamcli/-2024-02-21 01:38:33
kaptive/-2024-02-21 01:38:33
kgb-bot/-2024-02-21 01:38:35
khronos-opencl-headers/-2024-02-21 01:38:35
khronos-opencl-clhpp/-2024-02-21 01:38:35
kissplice/-2024-02-21 01:38:41
kiwi/-2024-02-21 01:38:42
klatexformula/-2024-02-21 01:38:42
kmflcomp/-2024-02-21 01:38:43
kma/-2024-02-21 01:38:43
krb5-strength/-2024-02-21 01:38:52
kraken2/-2024-02-21 01:38:52
kustomize/-2024-02-21 01:38:53
kubernetes-helm/-2024-02-21 01:38:53
kwallet-pam/-2024-02-21 01:38:53
khard/-2024-02-21 12:06:05
kali-defaults/-2024-02-26 01:06:50
kuttypy/-2024-02-26 01:06:51
khal/-2024-03-01 06:20:32
keychain/-2024-03-01 06:20:32
kafs-client/-2024-03-05 03:26:09
kcptun/-2024-03-05 03:26:14
kbd/-2024-03-05 03:26:14
kamailio/-2024-03-05 03:26:14
kappanhang/-2024-03-05 03:26:14
khmer/-2024-03-05 03:26:15
keyutils/-2024-03-05 03:26:15
kdevelop/-2024-03-05 03:26:15
kineticstools/-2024-03-05 03:26:16
klibc/-2024-03-05 03:26:19
kmc/-2024-03-05 03:26:19
kubecolor/-2024-03-05 03:26:20
kraft/-2024-03-05 03:26:20
komposter/-2024-03-05 03:26:20
kodi-game-libretro/-2024-03-05 03:26:20
ksh93u+m/-2024-03-05 03:26:20
kubernetes-split-yaml/-2024-03-05 03:26:20
kxd/-2024-03-05 03:26:22
kali-hidpi-mode/-2024-03-07 20:48:33
kyotocabinet/-2024-03-14 06:20:18
klaus/-2024-03-16 12:01:19
kodi-inputstream-adaptive/-2024-03-16 12:01:44
kodi-pvr-hts/-2024-03-16 12:01:44
kodi-pvr-mythtv/-2024-03-16 12:01:45
knockpy/-2024-03-18 00:15:06
kupfer/-2024-03-18 00:15:07
kubetail/-2024-03-20 12:01:13
kodi-inputstream-ffmpegdirect/-2024-03-23 00:00:33
kyua/-2024-03-24 06:21:05
kdump-tools/-2024-03-25 00:13:13
kubectx/-2024-03-29 00:05:15
kiwix-zim-updater/-2024-03-29 07:19:28
kleborate/-2024-04-01 18:00:42
kanshi/-2024-04-02 06:21:08
kbuild/-2024-04-03 06:19:56
kalign/-2024-04-08 00:21:47
keyboards-rg/-2024-04-10 06:08:37
keystone-tempest-plugin/-2024-04-13 06:20:08
kas/-2024-04-22 00:11:45
kali-themes/-2024-04-23 13:06:12
kali/-2024-04-24 06:46:34
kodi-imagedecoder-raw/-2024-04-24 06:46:34
kissfft/-2024-04-25 06:28:22
knot/-2024-04-25 18:00:50
keystone/-2024-04-26 00:20:51
kodi-vfs-libarchive/-2024-04-26 06:25:37
kodi-audioencoder-flac/-2024-04-26 06:28:59
kickpass/-2024-04-26 06:29:16
kdrill/-2024-04-26 18:02:30
kew/-2024-04-27 00:19:46
kgames/-2024-04-27 00:19:47
kmscon/-2024-04-27 00:19:47
ktls-utils/-2024-04-27 00:19:48
kivy/-2024-04-27 00:21:54
kawari8/-2024-04-29 00:20:49
kanatest/-2024-04-29 06:32:52
klavaro/-2024-04-29 06:32:53
krb5-auth-dialog/-2024-04-29 06:32:53
kasumi/-2024-04-29 06:32:53
kylin-burner/-2024-04-29 06:33:08
keybinder-3.0/-2024-04-29 06:33:39
kombu/-2024-04-29 07:15:49
kodi-audiodecoder-openmpt/-2024-04-29 16:07:45
kactivitymanagerd/-2024-04-30 00:37:26
kamoso/-2024-04-30 00:37:28
kconfig-frontends/-2024-04-30 00:37:39
kde-gtk-config/-2024-04-30 00:37:41
ktp-accounts-kcm/-2024-04-30 00:37:43
ktp-call-ui/-2024-04-30 00:37:45
ktp-auth-handler/-2024-04-30 00:37:45
ktp-contact-list/-2024-04-30 00:37:45
ktp-filetransfer-handler/-2024-04-30 00:37:46
ktp-desktop-applets/-2024-04-30 00:37:46
ktp-kded-integration-module/-2024-04-30 00:37:47
ktp-send-file/-2024-04-30 00:37:47
ktp-text-ui/-2024-04-30 00:37:48
kdenetwork-filesharing/-2024-04-30 00:37:50
kdenlive/-2024-04-30 00:37:50
kdepim-runtime/-2024-04-30 00:37:51
kid3/-2024-04-30 00:38:01
kig/-2024-04-30 00:38:01
kinfocenter/-2024-04-30 00:38:03
kio-gdrive/-2024-04-30 00:38:05
kjots/-2024-04-30 00:38:08
klayout/-2024-04-30 00:38:09
knowthelist/-2024-04-30 00:38:18
kontact/-2024-04-30 00:38:23
konversation/-2024-04-30 00:38:23
korganizer/-2024-04-30 00:38:24
kross-interpreters/-2024-04-30 00:38:29
ktouch/-2024-04-30 00:38:37
kwave/-2024-04-30 00:38:39
kylin-video/-2024-04-30 00:38:41
k3b/-2024-04-30 00:39:10
ktp-contact-runner/-2024-04-30 00:42:42
kmscube/-2024-04-30 18:14:56
kaidan/-2024-04-30 18:26:41
knxd/-2024-04-30 18:26:42
kdsingleapplication/-2024-04-30 18:26:52
kimagemapeditor/-2024-05-01 00:09:20
kapman/-2024-05-01 00:09:55
katomic/-2024-05-01 00:09:56
kblocks/-2024-05-01 00:09:57
kblackbox/-2024-05-01 00:09:57
kbreakout/-2024-05-01 00:09:58
kbounce/-2024-05-01 00:09:58
kfourinline/-2024-05-01 00:09:59
kdiamond/-2024-05-01 00:09:59
kgoldrunner/-2024-05-01 00:10:00
kigo/-2024-05-01 00:10:01
killbots/-2024-05-01 00:10:01
kiriki/-2024-05-01 00:10:02
kjumpingcube/-2024-05-01 00:10:02
klines/-2024-05-01 00:10:03
klickety/-2024-05-01 00:10:03
kmahjongg/-2024-05-01 00:10:04
knavalbattle/-2024-05-01 00:10:05
kmines/-2024-05-01 00:10:05
kmix/-2024-05-01 00:10:05
knights/-2024-05-01 00:10:06
knetwalk/-2024-05-01 00:10:06
kolf/-2024-05-01 00:10:07
kollision/-2024-05-01 00:10:07
konquest/-2024-05-01 00:10:07
kpat/-2024-05-01 00:10:08
kshisen/-2024-05-01 00:10:08
kreversi/-2024-05-01 00:10:08
ksnakeduel/-2024-05-01 00:10:09
ksudoku/-2024-05-01 00:10:10
kspaceduel/-2024-05-01 00:10:10
ksquares/-2024-05-01 00:10:10
ktuberling/-2024-05-01 00:10:11
kubrick/-2024-05-01 00:10:11
kstars/-2024-05-01 18:02:33
kitinerary/-2024-05-02 00:08:01
knockd/-2024-05-02 00:09:58
kmymoney/-2024-05-02 00:09:58
konclude/-2024-05-02 00:09:58
kexec-tools/-2024-05-02 06:28:20
ktikz/-2024-05-02 06:29:24
kball/-2024-05-02 12:02:43
kraptor/-2024-05-02 12:02:44
kchmviewer/-2024-05-03 04:21:46
kiwix/-2024-05-03 04:22:15
kmail-account-wizard/-2024-05-03 04:43:19
k4dirstat/-2024-05-03 04:49:08
kaccounts-providers/-2024-05-03 04:49:10
kalgebra/-2024-05-03 04:49:12
kalk/-2024-05-03 04:49:12
kanagram/-2024-05-03 04:49:13
kapptemplate/-2024-05-03 04:49:14
kasts/-2024-05-03 04:49:15
katarakt/-2024-05-03 04:49:15
kbackup/-2024-05-03 04:49:16
kbdd/-2024-05-03 04:49:16
kcachegrind/-2024-05-03 04:49:17
kbruch/-2024-05-03 04:49:17
kcheckers/-2024-05-03 04:49:18
kcalc/-2024-05-03 04:49:18
kcharselect/-2024-05-03 04:49:18
kclock/-2024-05-03 04:49:18
kcolorchooser/-2024-05-03 04:49:19
kde-cli-tools/-2024-05-03 04:49:19
kcron/-2024-05-03 04:49:20
kcm-fcitx/-2024-05-03 04:49:21
kde-config-systemd/-2024-05-03 04:49:23
ktp-approver/-2024-05-03 04:49:25
kdeconnect/-2024-05-03 04:49:27
kdebugsettings/-2024-05-03 04:49:27
kdegraphics-thumbnailers/-2024-05-03 04:49:28
kdesdk-thumbnailers/-2024-05-03 04:49:28
kdesvn/-2024-05-03 04:49:29
kdevelop-pg-qt/-2024-05-03 04:49:29
kdf/-2024-05-03 04:49:29
kdocker/-2024-05-03 04:49:30
kdialog/-2024-05-03 04:49:30
keditbookmarks/-2024-05-03 04:49:34
keurocalc/-2024-05-03 04:49:36
kfloppy/-2024-05-03 04:49:37
kfind/-2024-05-03 04:49:37
kgamma5/-2024-05-03 04:49:37
kgeography/-2024-05-03 04:49:38
kgeotag/-2024-05-03 04:49:38
kget/-2024-05-03 04:49:39
kgpg/-2024-05-03 04:49:40
khangman/-2024-05-03 04:49:40
khelpcenter/-2024-05-03 04:49:41
kile/-2024-05-03 04:49:42
kio-gopher/-2024-05-03 04:49:44
kio-admin/-2024-05-03 04:49:44
kio-fuse/-2024-05-03 04:49:44
kipi-plugins/-2024-05-03 04:49:45
kdesdk-kioslaves/-2024-05-03 04:49:45
kirigami-gallery/-2024-05-03 04:49:46
kleopatra/-2024-05-03 04:49:47
kiten/-2024-05-03 04:49:47
kiwix-tools/-2024-05-03 04:49:47
kmag/-2024-05-03 04:49:48
kmenuedit/-2024-05-03 04:49:49
kmouth/-2024-05-03 04:49:51
kmplot/-2024-05-03 04:49:52
kolourpaint/-2024-05-03 04:49:56
kongress/-2024-05-03 04:49:57
kontrast/-2024-05-03 04:49:59
konsole/-2024-05-03 04:49:59
kookbook/-2024-05-03 04:50:00
kpeoplevcard/-2024-05-03 04:50:01
krdc/-2024-05-03 04:50:05
krename/-2024-05-03 04:50:05
kronometer/-2024-05-03 04:50:06
kscreen/-2024-05-03 04:50:07
kruler/-2024-05-03 04:50:07
kshutdown/-2024-05-03 04:50:08
ksystemlog/-2024-05-03 04:50:08
ksshaskpass/-2024-05-03 04:50:08
ktechlab/-2024-05-03 04:50:09
ksystemstats/-2024-05-03 04:50:09
kteatime/-2024-05-03 04:50:09
ktimer/-2024-05-03 04:50:10
ktimetracker/-2024-05-03 04:50:10
kturtle/-2024-05-03 04:50:11
ktrip/-2024-05-03 04:50:11
kup-backup/-2024-05-03 04:50:12
kde-dev-utils/-2024-05-03 04:50:12
kwalletmanager/-2024-05-03 04:50:13
kwalletcli/-2024-05-03 04:50:13
kwayland-integration/-2024-05-03 04:50:13
kate/-2024-05-03 04:50:17
kwrited/-2024-05-03 04:50:17
kdecoration/-2024-05-03 04:55:06
kdsoap/-2024-05-03 04:55:07
kcalutils/-2024-05-03 04:55:18
kidentitymanagement/-2024-05-03 04:55:32
kimap/-2024-05-03 04:55:33
kjsembed/-2024-05-03 04:55:35
konqueror/-2024-05-03 04:55:41
kontactinterface/-2024-05-03 04:55:42
kldap/-2024-05-03 04:55:43
kmailtransport/-2024-05-03 04:55:45
kmbox/-2024-05-03 04:55:46
kmime/-2024-05-03 04:55:47
kpimtextedit/-2024-05-03 04:55:52
ktnef/-2024-05-03 04:56:05
kdiagram/-2024-05-03 04:56:10
kompare/-2024-05-03 04:56:13
kpkpass/-2024-05-03 04:56:17
ksmtp/-2024-05-03 04:56:18
kpmcore/-2024-05-03 04:56:19
kproperty/-2024-05-03 04:56:19
kreport/-2024-05-03 04:56:23
kscreenlocker/-2024-05-03 04:56:24
ksanecore/-2024-05-03 04:56:24
kseexpr/-2024-05-03 04:56:25
kdegraphics-mobipocket/-2024-05-03 04:59:08
kdeplasma-addons/-2024-05-03 05:05:16
kqtquickcharts/-2024-05-03 05:06:32
kaccounts-integration/-2024-05-03 05:06:33
kirigami-addons/-2024-05-03 05:06:35
kopeninghours/-2024-05-03 05:06:36
kosmindoormap/-2024-05-03 05:06:36
kpublictransport/-2024-05-03 05:06:36
kquickimageeditor/-2024-05-03 05:06:37
ktp-common-internals/-2024-05-03 05:06:41
kuserfeedback/-2024-05-03 05:07:25
kallisto/-2024-05-03 05:15:34
kdepim-addons/-2024-05-03 05:15:36
k2pdfopt/-2024-05-03 05:28:34
kalarm/-2024-05-03 05:28:35
kaffeine/-2024-05-03 05:28:35
kamera/-2024-05-03 05:28:36
kannel/-2024-05-03 05:28:36
kcollectd/-2024-05-03 05:28:37
kde-inotify-survey/-2024-05-03 05:28:38
keepalived/-2024-05-03 05:28:40
keepassxc/-2024-05-03 05:28:41
khotkeys/-2024-05-03 05:28:42
kildclient/-2024-05-03 05:28:42
kio-extras/-2024-05-03 05:28:42
klog/-2024-05-03 05:28:43
klettres/-2024-05-03 05:28:43
kmetronome/-2024-05-03 05:28:44
kmousetool/-2024-05-03 05:28:44
kmail/-2024-05-03 05:28:44
kmplayer/-2024-05-03 05:28:45
knotes/-2024-05-03 05:28:45
knews/-2024-05-03 05:28:45
kodi/-2024-05-03 05:28:49
kphotoalbum/-2024-05-03 05:28:50
ksirk/-2024-05-03 05:28:53
krfb/-2024-05-03 05:28:53
ktorrent/-2024-05-03 05:28:54
kwordquiz/-2024-05-03 05:28:57
kxstitch/-2024-05-03 05:28:57
keyman/-2024-05-03 05:32:16
ktextaddons/-2024-05-03 05:32:28
kf5-messagelib/-2024-05-03 05:32:28
koko/-2024-05-03 05:32:30
kaddressbook/-2024-05-03 05:32:30
krb5/-2024-05-03 05:32:32
kvirc/-2024-05-03 05:32:32
kwin/-2024-05-03 05:32:33
kronosnet/-2024-05-03 05:33:26
kpipewire/-2024-05-03 05:39:00
knot-resolver/-2024-05-04 00:01:14
kconfiglib/-2024-05-04 06:02:29
kst/-2024-05-05 06:22:33
komi/-2024-05-05 18:03:42
kiwisolver/-2024-05-06 01:27:54
kuvert/-2024-05-06 06:12:56
kitty/-2024-05-06 06:58:10
krusader/-2024-05-06 06:58:10
kexi/-2024-05-06 06:58:10
kdiff3/-2024-05-06 06:58:10
kdb/-2024-05-06 06:58:10
kbibtex/-2024-05-06 06:58:10
kalzium/-2024-05-06 12:08:51
kdiskmark/-2024-05-06 18:07:59
kwartz-client/-2024-05-07 06:05:39
keyrings.alt/-2024-05-07 06:07:07
kylin-scanner/-2024-05-07 06:10:34
kalibrate-rtl/-2024-05-07 07:23:16
kismet/-2024-05-07 10:02:00
kicad/-2024-05-07 18:06:10
kmod/-2024-05-08 02:59:01
kidletime/-2024-05-08 12:04:22
kjobwidgets/-2024-05-08 12:04:22
kauth/-2024-05-08 12:04:22
kitemmodels/-2024-05-08 12:04:22
karchive/-2024-05-08 12:04:22
kdbusaddons/-2024-05-08 12:04:22
kplotting/-2024-05-08 12:04:22
ksyntax-highlighting/-2024-05-08 12:04:22
kwayland/-2024-05-08 12:04:22
kunitconversion/-2024-05-08 12:04:22
kwidgetsaddons/-2024-05-08 12:04:22
kguiaddons/-2024-05-08 12:04:22
kpeople/-2024-05-08 12:04:22
kdnssd-kf5/-2024-05-08 12:04:22
kpty/-2024-05-08 12:04:22
kcoreaddons/-2024-05-08 12:04:22
kcodecs/-2024-05-08 12:04:22
kcrash/-2024-05-08 12:04:22
ki18n/-2024-05-08 12:04:22
kholidays/-2024-05-08 12:04:22
kconfig/-2024-05-08 12:04:22
kitemviews/-2024-05-08 12:04:22
kdesu/-2024-05-08 12:04:22
kfilemetadata-kf5/-2024-05-08 12:04:22
kcompletion/-2024-05-08 12:04:22
keepassxc-browser/-2024-05-09 07:12:00
kapidox/-2024-05-10 06:21:50
kxl/-2024-05-10 06:25:50
kactivities-kf5/-2024-05-10 07:05:16
kcalcore/-2024-05-10 07:05:16
kconfigwidgets/-2024-05-10 07:05:16
kactivities-stats/-2024-05-10 07:05:16
kbookmarks/-2024-05-10 07:05:16
kcontacts/-2024-05-10 07:05:16
kdav/-2024-05-10 07:05:16
kquickcharts/-2024-05-10 07:05:17
kdesignerplugin/-2024-05-10 07:05:17
kdelibs4support/-2024-05-10 07:05:17
kio/-2024-05-10 07:05:17
kdoctools/-2024-05-10 07:05:17
kxmlrpcclient/-2024-05-10 07:05:17
kmediaplayer/-2024-05-10 07:05:17
kiconthemes/-2024-05-10 07:05:17
kross/-2024-05-10 07:05:17
kxmlgui/-2024-05-10 07:05:17
kpackage/-2024-05-10 07:05:17
knotifications/-2024-05-10 07:05:17
kdeclarative/-2024-05-10 07:05:17
kdewebkit/-2024-05-10 07:05:17
kwindowsystem/-2024-05-10 07:05:17
kded/-2024-05-10 07:05:17
ktexteditor/-2024-05-10 07:05:17
kirigami2/-2024-05-10 07:05:17
knotifyconfig/-2024-05-10 07:05:17
kservice/-2024-05-10 07:05:17
kristall/-2024-05-10 07:05:17
kwallet-kf5/-2024-05-10 07:05:17
krunner/-2024-05-10 07:05:17
kglobalaccel/-2024-05-10 07:05:17
kimageformats/-2024-05-10 07:05:17
kemoticons/-2024-05-10 07:05:17
ktextwidgets/-2024-05-10 07:05:17
kparts/-2024-05-10 07:05:17
kinit/-2024-05-10 18:10:03
knewstuff/-2024-05-10 18:10:03
ksmbd-tools/-2024-05-11 07:08:37
kde-spectacle/-2024-05-12 07:02:33
krita/-2024-05-13 06:22:24
kalendar/-2024-05-13 07:02:17
kwin-style-kali/-2024-05-13 15:55:26
kjs/-2024-05-13 18:03:10
khtml/-2024-05-13 18:03:10
kcmutils/-2024-05-13 18:03:10
kcolorpicker/-2024-05-14 00:02:55
ksnip/-2024-05-14 00:02:55
kimageannotator/-2024-05-14 00:02:55
killer/-2024-05-14 06:20:55
ketm/-2024-05-14 06:22:51
kernelshark/-2024-05-14 07:01:49
kicad-footprints/-2024-05-14 18:29:31
kicad-packages3d/-2024-05-14 18:29:32
kicad-templates/-2024-05-14 18:29:32
kicad-symbols/-2024-05-14 18:29:32
kali-meta/-2024-05-15 07:09:44